Temperature
25 26 25 25 24 25 25 25 25 25 24 24 24 23 22 21 21 20 20 20 20 19 19 19 19 20 20 21 22 22 21 21 20 20 20 19 19 19 18 18 18 18 17 17
26 24 24 24 24 24 24 24 25 24 23 24 24 23 22 21 20 19 19 19 19 18 18 18 18 19 19 20 21 21 21 21 21 20 20 20 19 19 18 18 18 18 18 17
24 23 23 23 23 24 24 23 23 23 23 23 23 23 22 21 20 20 19 18 18 17 17 17 17 18 19 19 20 21 21 21 21 20 20 20 19 19 19 18 18 18 18 18
23 23 23 23 22 22 23 22 22 22 23 23 23 23 23 21 21 20 19 18 18 17 17 17 16 17 17 18 19 20 21 21 20 20 19 20 19 18 18 17 17 18 18 18
22 22 22 21 21 21 21 21 21 22 22 23 23 22 23 21 20 19 19 18 17 16 16 16 16 16 16 17 18 19 20 20 19 19 19 19 18 17 17 17 17 17 17 17
21 21 21 20 21 20 21 21 22 22 22 21 22 22 20 18 17 18 18 17 16 16 16 15 15 15 15 16 17 17 18 18 18 18 18 17 17 16 16 16 16 16 17 17
21 20 20 20 21 21 21 20 21 21 20 21 22 21 17 16 17 17 16 16 15 15 15 15 15 15 15 15 16 16 16 17 17 17 17 16 16 16 16 16 16 16 16 17
21 20 19 19 19 19 19 19 18 18 19 19 19 18 15 16 16 16 15 15 15 14 14 14 14 14 14 15 15 15 15 16 16 16 16 16 16 16 16 16 16 16 16 16
20 19 19 18 18 18 18 18 18 17 18 18 18 17 16 16 16 15 15 14 14 13 13 13 14 14 14 14 14 14 15 15 15 15 15 15 15 15 16 16 16 16 16 16
20 19 18 18 19 18 17 17 17 17 16 16 17 15 13 14 13 14 13 13 12 13 13 13 13 13 13 14 14 14 14 15 15 15 15 15 15 16 16 16 16 16 16 16
19 19 18 17 16 16 16 16 16 16 16 15 15 13 12 12 12 12 12 11 11 12 12 12 13 13 13 14 14 14 14 14 14 14 15 15 15 15 16 16 16 16 16 16
18 19 18 16 16 16 15 14 14 14 15 15 13 12 11 11 11 11 11 11 11 11 12 12 12 13 13 13 14 14 14 14 14 15 15 15 15 15 15 15 15 16 15 15
18 18 18 17 16 15 14 14 14 14 14 13 13 11 12 11 11 11 10 10 11 11 11 12 12 12 13 13 13 14 14 14 15 15 15 15 15 15 15 15 16 15 15 15
17 17 17 15 14 13 13 14 14 14 13 12 12 11 11 11 11 11 11 11 11 11 11 11 12 12 12 13 13 13 14 14 14 14 14 14 15 15 15 15 15 15 15 15
18 17 16 15 14 14 13 13 14 13 13 12 12 12 11 11 11 11 12 12 12 12 12 12 12 12 12 12 12 13 13 13 13 14 14 14 14 14 14 15 15 15 15 15
17 17 16 15 14 14 14 13 13 13 13 13 13 12 12 12 12 13 13 12 13 12 12 12 12 12 12 12 12 12 12 13 13 13 13 13 13 14 14 14 14 14 15 15
17 17 17 16 15 15 15 14 13 13 13 13 13 13 13 14 13 13 13 13 13 12 12 12 12 12 12 12 12 12 12 12 12 12 12 13 13 13 13 13 13 14 14 14
17 17 17 17 16 15 15 14 13 13 14 14 14 14 13 13 13 13 13 13 13 13 13 13 13 12 12 12 12 12 12 11 12 12 12 12 12 12 12 12 13 13 13 13
16 16 16 17 17 16 15 14 14 14 15 14 14 14 14 14 15 15 13 12 12 12 13 13 13 13 13 12 12 12 12 12 11 11 11 11 12 12 12 12 12 12 12 12
15 16 17 16 17 16 16 15 14 14 15 15 14 14 14 15 17 16 13 12 13 13 13 13 13 13 13 13 12 13 12 12 11 11 11 11 11 12 12 12 12 12 12 12
16 16 16 17 17 17 16 14 13 15 16 14 14 13 14 14 14 13 13 12 13 13 13 14 14 14 13 13 13 13 12 12 11 11 11 11 11 11 12 12 12 12 12 12
17 17 17 16 17 16 14 14 15 16 14 13 13 13 13 13 13 13 12 13 13 13 14 14 14 14 14 13 13 13 12 12 11 11 11 11 11 11 11 11 11 11 11 11
16 17 17 17 17 15 14 14 14 13 13 13 13 12 12 12 13 12 13 13 13 13 14 14 14 14 14 14 13 13 12 12 11 11 11 11 11 11 11 11 11 11 11 11
17 15 15 16 16 14 13 13 13 13 13 12 12 12 12 12 12 12 13 13 13 13 14 14 14 14 14 14 14 13 13 12 12 11 11 11 11 11 11 11 11 10 10 10
17 15 15 16 16 14 13 13 13 12 12 12 12 12 12 12 12 12 12 13 13 13 14 14 14 15 15 14 14 14 13 13 12 12 11 11 11 11 10 10 10 10 10 10
16 15 16 17 16 16 15 13 13 12 12 12 12 12 12 12 12 12 12 12 13 13 14 14 15 15 15 15 14 14 14 13 13 12 12 11 11 10 10 10 9 9 9 9
Wind_Speed
1 1 3 5 4 4 5 6 6 3 2 3 1 1 4 7 9 11 11 12 12 12 12 11 11 10 10 12 15 16 16 16 13 11 11 10 9 8 8 8 10 11 12 12
3 5 6 4 3 3 5 7 7 3 1 4 4 2 3 5 9 10 12 13 14 15 15 14 13 11 10 10 13 16 16 16 15 12 10 8 7 6 6 6 7 10 11 12
6 7 6 4 7 6 5 6 7 8 6 5 7 7 6 4 5 9 12 13 14 15 17 17 15 14 12 10 11 12 14 14 13 13 9 7 6 4 4 5 5 7 10 11
7 8 7 7 9 9 6 7 9 9 10 9 7 10 5 1 2 10 14 15 16 16 16 16 16 15 14 12 10 9 10 11 11 13 11 10 6 4 2 1 2 5 7 9
6 9 10 10 9 9 8 10 10 11 12 13 11 11 3 3 6 13 15 16 16 16 16 16 15 14 13 12 9 4 4 6 8 11 12 10 6 4 3 1 3 4 5 7
8 7 9 10 6 7 10 11 10 10 10 14 11 10 1 5 10 14 16 17 17 17 16 15 14 13 11 11 8 5 4 7 9 10 11 11 10 7 5 1 3 4 3 5
4 9 8 10 9 7 11 10 6 7 8 8 3 4 5 9 11 13 16 17 17 16 15 15 14 12 11 10 9 7 8 9 10 11 10 10 10 8 5 3 4 4 4 4
5 4 9 11 10 9 9 8 6 6 7 5 3 1 7 10 12 13 14 16 16 17 15 14 12 9 8 9 9 8 8 9 9 9 9 8 8 5 3 4 4 4 3 3
6 4 6 8 9 9 8 7 5 7 8 7 2 3 4 14 17 18 18 19 19 18 15 13 11 8 7 7 8 8 7 8 7 7 7 6 5 5 5 5 5 4 4 4
5 2 5 5 5 10 8 7 5 4 4 3 1 4 8 18 19 19 19 20 19 18 15 12 9 7 6 6 6 7 6 5 5 4 4 3 3 3 3 3 4 5 5 5
4 3 3 4 9 12 10 8 6 4 3 3 2 4 8 13 15 16 17 18 18 16 13 11 10 8 8 7 7 7 6 6 5 3 3 3 2 2 3 3 4 4 4 5
4 3 3 5 5 7 8 8 6 4 4 3 2 3 9 12 12 14 16 17 16 15 14 12 12 11 11 10 9 8 7 6 4 3 3 2 2 3 3 3 3 3 3 3
3 4 1 3 2 7 7 9 6 3 2 3 2 3 8 12 14 15 15 15 15 15 15 14 14 13 13 12 11 9 8 7 5 4 3 3 3 2 2 2 3 2 3 3
2 5 6 5 4 5 6 10 9 5 3 3 4 4 9 13 14 14 14 14 13 13 14 14 14 14 13 13 12 11 10 8 7 6 5 5 4 3 2 2 1 0 1 2
1 5 7 7 5 4 7 9 10 10 6 4 4 5 8 11 11 11 11 12 12 13 14 14 14 13 13 13 13 12 11 10 9 8 8 7 5 4 4 3 2 1 2 3
2 4 6 5 2 3 6 8 7 7 6 5 4 4 6 9 7 9 11 11 12 13 14 13 13 13 13 13 12 12 11 11 10 10 9 8 7 6 6 5 4 2 2 2
2 4 3 3 2 3 2 4 4 4 4 4 4 5 10 9 9 10 11 12 12 12 12 12 12 11 11 11 11 11 11 10 10 10 10 9 8 7 7 6 5 4 3 2
2 3 1 2 3 0 3 1 1 1 1 2 3 6 8 8 6 5 10 12 12 12 11 11 10 10 10 9 9 9 9 10 10 10 10 9 9 8 7 7 6 6 5 4
0 2 2 2 1 2 3 4 3 2 1 1 3 6 8 8 2 5 12 13 12 11 10 9 9 9 8 9 8 9 9 10 10 10 10 9 9 9 9 8 8 7 6 6
2 2 3 3 2 2 4 6 3 3 2 2 2 5 8 8 3 8 14 13 12 11 9 9 8 8 8 8 7 8 9 9 9 9 9 9 9 9 9 9 8 7 6 6
3 3 4 4 3 2 6 8 5 3 3 3 1 4 6 6 7 10 12 11 11 10 9 8 7 7 7 7 6 8 8 9 8 7 8 8 8 9 8 8 8 7 7 7
4 4 4 4 4 3 10 8 6 1 4 2 1 3 5 7 8 9 10 10 10 10 9 9 7 6 5 5 5 6 6 6 5 5 7 7 8 8 7 8 8 8 8 8
5 4 3 4 1 4 10 6 3 2 2 1 1 3 5 7 8 9 10 10 10 10 9 8 7 6 4 4 4 5 4 4 4 5 6 6 7 7 7 8 8 8 8 7
5 4 4 5 7 7 8 8 6 5 3 2 2 4 5 6 8 9 10 10 10 10 9 8 8 7 5 4 3 3 2 2 3 4 5 5 6 6 7 6 7 7 8 7
6 7 6 7 5 6 10 11 9 7 5 3 3 3 4 6 7 9 9 10 10 9 9 8 8 7 7 5 4 2 1 1 2 3 4 5 5 5 5 6 6 7 8 7
8 9 7 5 7 7 8 13 12 9 6 4 3 3 3 4 6 8 9 9 9 10 9 9 9 8 7 6 4 2 1 1 2 3 4 4 4 4 4 4 5 6 6 8
Wind_Direction
67 35 19 3 352 321 302 283 278 300 356 307 286 9 58 50 42 32 23 16 10 2 355 349 337 318 289 264 248 237 230 218 208 200 200 199 204 207 211 217 220 220 224 225
172 49 19 17 7 303 288 281 281 279 343 296 273 258 115 69 49 33 20 12 5 357 354 353 345 336 315 286 258 243 230 219 208 199 195 196 195 202 207 211 222 227 229 229
69 34 22 28 19 334 309 314 307 299 295 251 263 238 178 120 59 33 21 11 4 358 351 348 344 340 330 311 279 251 235 220 203 189 180 163 161 163 182 206 220 231 234 234
65 36 30 32 25 351 314 345 312 291 276 266 252 270 196 124 40 18 10 4 360 356 351 348 345 343 337 326 308 264 236 216 192 176 171 166 166 163 152 232 240 245 242 238
67 37 34 29 14 353 334 318 295 280 270 268 249 258 219 65 9 1 359 357 355 352 349 347 347 346 344 341 336 307 217 187 164 162 160 151 133 118 96 33 292 259 244 237
81 58 36 12 357 3 330 303 273 253 256 254 252 249 208 38 1 351 352 352 352 350 348 347 348 353 357 2 9 23 96 122 132 136 138 133 124 115 111 140 254 253 241 235
95 62 37 8 355 360 352 333 292 259 245 257 269 243 74 34 9 357 350 350 349 349 348 347 349 356 4 17 30 52 83 102 116 122 120 122 122 126 140 189 233 231 226 224
1 40 31 22 14 344 354 350 327 296 290 299 296 137 86 29 11 1 356 353 350 350 350 350 351 359 11 27 34 48 78 92 103 113 118 120 123 128 149 197 217 217 217 210
6 41 45 32 24 9 349 356 333 294 289 278 266 99 74 8 4 360 358 355 352 350 350 353 359 11 18 26 32 39 64 84 96 104 110 119 132 146 167 189 199 196 192 174
356 13 38 19 10 30 10 343 320 309 306 287 319 47 6 355 351 350 353 351 349 349 352 359 6 14 24 28 25 32 48 70 78 87 99 110 123 148 162 182 199 187 170 158
354 8 57 49 29 8 10 7 346 306 303 317 337 54 10 353 347 348 350 350 351 353 0 12 14 23 32 32 30 32 36 46 47 46 66 98 123 148 163 177 180 171 166 168
6 349 65 84 74 25 20 4 348 341 356 357 340 36 8 356 353 355 354 354 356 1 11 23 27 28 30 27 25 28 30 38 39 50 74 100 131 154 163 161 157 161 157 167
13 346 344 144 110 25 15 4 359 333 336 11 13 14 360 0 3 0 359 359 3 13 21 26 28 29 29 27 26 30 35 42 45 48 64 70 73 85 107 131 139 155 161 172
358 46 47 54 37 1 6 17 26 30 34 42 34 7 359 357 354 352 357 1 6 15 23 27 27 28 26 26 27 32 38 40 46 51 56 54 53 42 29 47 73 186 216 215
31 87 92 96 91 56 43 36 42 50 43 48 30 20 357 343 340 344 354 2 13 19 24 27 27 28 27 28 29 33 35 37 42 48 47 41 41 36 32 32 25 357 308 271
65 123 131 124 123 58 48 38 42 44 38 44 45 35 341 332 344 1 10 13 18 20 20 22 25 28 28 27 28 32 35 37 42 46 43 38 40 42 38 32 27 24 344 300
139 163 177 132 164 223 53 24 27 48 33 16 21 347 333 347 3 9 10 12 14 13 15 17 19 23 26 27 27 32 36 40 45 48 44 38 40 41 38 35 33 24 12 358
159 166 182 161 191 172 98 124 298 330 19 5 341 335 337 335 337 14 16 8 6 5 5 8 9 15 19 25 30 35 41 43 45 46 44 38 36 38 38 37 33 26 23 22
327 203 197 212 184 146 178 199 221 249 139 350 337 345 347 332 248 60 22 7 359 354 352 353 355 3 13 21 23 31 41 44 44 40 37 34 34 36 35 34 28 22 27 33
114 218 224 214 233 213 156 150 168 234 202 136 341 352 354 352 36 23 359 353 353 352 351 348 349 3 15 17 17 29 39 41 40 36 36 37 37 37 35 32 27 26 30 33
200 201 218 225 239 196 145 148 171 216 105 111 1 351 354 4 356 337 340 348 351 350 351 349 351 1 6 7 14 31 36 37 34 34 39 39 37 39 35 33 31 30 35 38
228 215 212 217 228 202 153 165 199 89 98 126 348 346 344 338 335 340 344 347 351 352 353 351 348 351 356 2 10 34 35 32 37 40 43 43 39 36 35 37 35 34 34 38
224 232 245 229 269 97 172 185 174 163 172 174 316 337 332 329 338 342 343 347 351 352 350 346 339 337 347 1 1 20 33 28 35 43 44 42 45 44 38 37 37 35 33 33
208 207 231 244 233 204 198 202 200 203 212 236 293 313 319 326 334 340 344 346 349 349 347 342 336 336 342 347 345 355 11 14 23 35 37 40 40 46 47 42 39 38 32 30
214 190 217 236 216 197 210 208 203 200 213 236 264 290 311 323 333 339 340 344 345 343 342 339 334 330 329 329 322 326 318 335 14 30 37 43 49 50 53 59 45 41 46 30
201 197 200 221 196 194 195 194 194 197 207 224 250 277 311 323 330 334 337 340 340 340 339 337 335 331 328 325 314 300 243 285 359 31 35 38 49 55 54 68 89 70 52 46
Height
1518 1516 1519 1519 1518 1518 1517 1517 1517 1515 1516 1517 1516 1519 1521 1524 1523 1522 1521 1519 1518 1517 1516 1513 1511 1509 1509 1509 1511 1513 1515 1517 1519 1520 1522 1524 1526 1528 1529 1531 1532 1533 1535 1536
1516 1522 1523 1522 1521 1519 1518 1518 1516 1515 1517 1516 1516 1518 1521 1524 1524 1524 1522 1520 1518 1516 1513 1511 1508 1506 1505 1504 1504 1506 1508 1511 1513 1514 1517 1520 1523 1525 1526 1527 1528 1530 1531 1533
1522 1529 1526 1524 1523 1521 1520 1522 1521 1520 1518 1516 1516 1516 1518 1522 1524 1524 1523 1522 1520 1517 1513 1509 1505 1503 1501 1499 1498 1499 1501 1503 1506 1508 1511 1514 1517 1520 1522 1523 1525 1527 1528 1530
1527 1530 1528 1527 1528 1527 1524 1525 1524 1522 1520 1514 1515 1518 1513 1518 1520 1523 1523 1522 1519 1516 1513 1509 1505 1501 1498 1495 1493 1493 1494 1497 1499 1502 1504 1507 1510 1514 1517 1520 1522 1524 1525 1526
1533 1534 1532 1533 1535 1532 1529 1527 1523 1520 1517 1515 1512 1517 1511 1518 1523 1524 1524 1522 1520 1517 1513 1509 1505 1500 1496 1492 1490 1488 1489 1491 1493 1496 1499 1501 1505 1508 1512 1515 1519 1521 1522 1523
1536 1538 1538 1538 1536 1534 1530 1523 1518 1516 1514 1519 1510 1513 1520 1528 1531 1528 1526 1523 1520 1517 1513 1509 1504 1500 1495 1492 1488 1486 1486 1487 1489 1492 1495 1497 1500 1504 1507 1512 1517 1520 1520 1520
1536 1540 1542 1541 1535 1533 1530 1528 1524 1522 1520 1517 1509 1516 1534 1536 1535 1533 1529 1525 1521 1517 1513 1508 1504 1500 1496 1493 1490 1488 1487 1487 1489 1491 1493 1496 1498 1502 1505 1511 1513 1517 1518 1519
1539 1543 1546 1545 1544 1541 1536 1535 1540 1540 1532 1526 1520 1526 1540 1538 1537 1535 1531 1527 1522 1517 1513 1508 1505 1501 1498 1495 1493 1491 1490 1490 1491 1492 1494 1496 1499 1502 1506 1510 1512 1515 1517 1518
1543 1547 1549 1549 1548 1544 1540 1538 1540 1541 1532 1532 1528 1533 1537 1537 1536 1535 1531 1527 1522 1517 1513 1508 1505 1502 1500 1498 1496 1494 1493 1493 1493 1494 1495 1497 1500 1502 1505 1510 1513 1514 1516 1516
1546 1549 1551 1551 1548 1548 1548 1546 1541 1542 1544 1541 1536 1541 1551 1545 1542 1538 1534 1529 1524 1518 1513 1509 1506 1504 1502 1500 1498 1497 1496 1496 1497 1498 1499 1500 1502 1505 1507 1509 1512 1513 1514 1515
1549 1548 1552 1552 1555 1557 1553 1551 1549 1545 1545 1549 1550 1557 1558 1555 1550 1545 1539 1533 1527 1521 1515 1511 1507 1505 1504 1502 1501 1500 1500 1499 1499 1501 1502 1503 1504 1507 1508 1510 1512 1513 1514 1514
1553 1549 1552 1558 1561 1560 1559 1559 1557 1555 1552 1550 1557 1566 1561 1558 1553 1548 1542 1535 1529 1523 1518 1513 1510 1507 1506 1504 1504 1503 1502 1502 1502 1503 1504 1505 1507 1508 1509 1511 1512 1513 1513 1514
1554 1552 1551 1554 1560 1562 1563 1561 1557 1556 1556 1558 1562 1570 1562 1559 1554 1549 1543 1538 1532 1526 1521 1517 1514 1511 1509 1508 1507 1506 1505 1505 1505 1505 1506 1507 1508 1509 1510 1511 1511 1512 1513 1513
1557 1556 1558 1566 1569 1570 1568 1564 1558 1558 1561 1564 1567 1568 1563 1559 1555 1551 1546 1541 1536 1531 1527 1523 1520 1517 1514 1512 1510 1509 1508 1507 1507 1507 1507 1508 1508 1509 1510 1510 1510 1511 1512 1512
1557 1559 1563 1567 1569 1569 1569 1567 1564 1563 1565 1566 1568 1566 1565 1561 1558 1554 1549 1545 1540 1536 1532 1529 1526 1523 1520 1517 1514 1512 1511 1510 1509 1509 1509 1509 1509 1509 1509 1509 1509 1510 1510 1511
1559 1561 1563 1568 1569 1568 1568 1568 1567 1567 1567 1566 1564 1566 1564 1561 1558 1554 1551 1547 1544 1540 1537 1534 1531 1528 1525 1522 1519 1517 1514 1513 1512 1511 1510 1510 1509 1509 1509 1508 1508 1508 1508 1509
1559 1559 1560 1562 1566 1567 1567 1570 1569 1568 1568 1566 1565 1566 1563 1560 1557 1555 1553 1550 1547 1544 1541 1538 1535 1533 1530 1527 1524 1522 1519 1517 1516 1514 1512 1511 1510 1509 1508 1508 1507 1507 1506 1506
1560 1560 1560 1560 1564 1567 1569 1570 1570 1569 1567 1567 1566 1565 1563 1561 1559 1557 1555 1552 1549 1547 1544 1541 1539 1536 1534 1531 1529 1526 1524 1521 1519 1517 1515 1513 1512 1510 1509 1508 1507 1506 1505 1504
1563 1561 1560 1559 1559 1563 1567 1568 1568 1567 1565 1566 1565 1564 1562 1560 1557 1556 1556 1553 1551 1548 1546 1543 1541 1539 1537 1534 1532 1530 1528 1525 1522 1519 1518 1516 1514 1512 1510 1508 1507 1506 1504 1503
1565 1562 1559 1559 1558 1562 1560 1564 1568 1569 1563 1565 1566 1564 1563 1559 1553 1557 1557 1554 1551 1549 1547 1545 1543 1541 1539 1537 1534 1533 1531 1528 1525 1522 1520 1518 1516 1514 1511 1510 1508 1506 1504 1503
1559 1559 1558 1557 1555 1554 1559 1565 1569 1566 1562 1565 1565 1565 1564 1562 1562 1562 1558 1555 1552 1550 1548 1546 1545 1543 1541 1538 1537 1535 1533 1530 1527 1525 1523 1520 1518 1516 1513 1511 1509 1507 1505 1504
1553 1555 1555 1556 1556 1557 1559 1563 1563 1561 1563 1564 1565 1565 1565 1564 1562 1561 1558 1556 1553 1550 1548 1547 1545 1544 1542 1540 1538 1537 1534 1532 1529 1527 1525 1523 1520 1518 1516 1513 1511 1509 1507 1505
1553 1552 1550 1552 1553 1555 1558 1559 1561 1562 1563 1564 1565 1565 1564 1563 1562 1560 1558 1556 1553 1551 1548 1547 1545 1544 1543 1541 1539 1538 1535 1533 1531 1529 1527 1525 1522 1520 1517 1515 1513 1511 1509 1507
1550 1554 1553 1551 1550 1554 1556 1558 1560 1561 1562 1563 1564 1564 1563 1562 1561 1559 1557 1555 1553 1550 1548 1546 1545 1544 1543 1541 1540 1538 1536 1534 1533 1531 1529 1527 1524 1522 1519 1517 1515 1513 1511 1509
1546 1550 1549 1547 1548 1552 1553 1555 1558 1559 1561 1562 1562 1562 1562 1561 1560 1559 1557 1554 1552 1550 1547 1546 1544 1543 1542 1541 1540 1538 1536 1535 1534 1532 1530 1528 1526 1523 1521 1519 1517 1515 1513 1512
1542 1543 1543 1541 1543 1546 1548 1551 1555 1557 1559 1560 1561 1561 1561 1560 1559 1557 1556 1554 1551 1549 1547 1545 1544 1542 1541 1540 1539 1538 1536 1535 1535 1533 1531 1529 1527 1525 1523 1521 1520 1518 1516 1514